Time,TemperatureF,DewpointF,PressureIn,WindDirection,WindDirectionDegrees,WindSpeedMPH,WindSpeedGustMPH,Humidity,HourlyPrecipIn,Conditions,Clouds,dailyrainin,SoftwareType,DateUTC
2013-03-08 00:02:00,30.0,27.0,30.38,NW,320,3.0,-999.0,89,-99.99,,,-99.99,,2013-03-08 05:02:00,
2013-03-08 00:12:00,30.0,27.0,30.38,NW,320,3.0,-999.0,89,-99.99,,,-99.99,,2013-03-08 05:12:00,
2013-03-08 00:22:00,30.0,27.0,30.37,NW,321,2.0,-999.0,89,-99.99,,,-99.99,,2013-03-08 05:22:00,
2013-03-08 00:33:00,30.0,27.0,30.38,NW,313,3.0,-999.0,89,-99.99,,,-99.99,,2013-03-08 05:33:00,
2013-03-08 00:42:00,30.0,27.0,30.38,NW,313,3.0,-999.0,89,-99.99,,,-99.99,,2013-03-08 05:42:00,
2013-03-08 00:52:00,30.0,27.0,30.38,North,359,3.0,-999.0,89,-99.99,,,-99.99,,2013-03-08 05:52:00,
2013-03-08 01:01:00,30.0,27.0,30.38,North,8,3.0,-999.0,89,-99.99,,,-99.99,,2013-03-08 06:01:00,
2013-03-08 01:11:00,30.0,27.0,30.38,North,8,3.0,-999.0,89,-99.99,,,-99.99,,2013-03-08 06:11:00,
2013-03-08 01:22:00,30.0,27.0,30.38,North,8,3.0,-999.0,89,-99.99,,,-99.99,,2013-03-08 06:22:00,
2013-03-08 01:32:00,30.0,27.0,30.39,NNW,327,3.0,-999.0,88,-99.99,,,-99.99,,2013-03-08 06:32:00,
2013-03-08 01:42:00,30.0,27.0,30.39,NNW,327,3.0,-999.0,88,-99.99,,,-99.99,,2013-03-08 06:42:00,
2013-03-08 01:52:00,30.0,27.0,30.40,NNW,342,3.0,-999.0,88,-99.99,,,-99.99,,2013-03-08 06:52:00,
2013-03-08 02:01:00,30.0,27.0,30.40,NW,317,3.0,-999.0,87,-99.99,,,-99.99,,2013-03-08 07:01:00,
2013-03-08 02:11:00,30.0,27.0,30.40,NW,317,3.0,-999.0,87,-99.99,,,-99.99,,2013-03-08 07:11:00,
2013-03-08 02:22:00,30.0,27.0,30.40,NW,306,3.0,-999.0,87,-99.99,,,-99.99,,2013-03-08 07:22:00,
2013-03-08 02:32:00,29.0,26.0,30.40,North,350,3.0,-999.0,87,-99.99,,,-99.99,,2013-03-08 07:32:00,
2013-03-08 02:42:00,29.0,26.0,30.40,North,350,3.0,-999.0,87,-99.99,,,-99.99,,2013-03-08 07:42:00,
2013-03-08 02:52:00,29.0,26.0,30.40,WNW,299,3.0,-999.0,88,-99.99,,,-99.99,,2013-03-08 07:52:00,
2013-03-08 03:01:00,29.0,26.0,30.40,NW,317,2.0,-999.0,89,-99.99,,,-99.99,,2013-03-08 08:01:00,
2013-03-08 03:11:00,29.0,26.0,30.40,NW,317,2.0,-999.0,89,-99.99,,,-99.99,,2013-03-08 08:11:00,
2013-03-08 03:22:00,28.0,25.0,30.40,NW,317,2.0,-999.0,90,-99.99,,,-99.99,,2013-03-08 08:22:00,
2013-03-08 03:32:00,28.0,26.0,30.40,NW,317,1.0,-999.0,91,-99.99,,,-99.99,,2013-03-08 08:32:00,
2013-03-08 03:42:00,28.0,26.0,30.40,NW,317,1.0,-999.0,91,-99.99,,,-99.99,,2013-03-08 08:42:00,
2013-03-08 03:52:00,27.0,25.0,30.40,NW,317,1.0,-999.0,91,-99.99,,,-99.99,,2013-03-08 08:52:00,
2013-03-08 04:03:00,27.0,25.0,30.40,NW,317,1.0,-999.0,92,-99.99,,,-99.99,,2013-03-08 09:03:00,
2013-03-08 04:11:00,27.0,25.0,30.40,NW,317,1.0,-999.0,92,-99.99,,,-99.99,,2013-03-08 09:11:00,
2013-03-08 04:22:00,27.0,25.0,30.40,NW,317,1.0,-999.0,92,-99.99,,,-99.99,,2013-03-08 09:22:00,
2013-03-08 04:32:00,26.0,24.0,30.40,NW,317,1.0,-999.0,93,-99.99,,,-99.99,,2013-03-08 09:32:00,
2013-03-08 04:42:00,26.0,24.0,30.40,NW,317,1.0,-999.0,93,-99.99,,,-99.99,,2013-03-08 09:42:00,
2013-03-08 04:52:00,26.0,24.0,30.40,NW,317,1.0,-999.0,93,-99.99,,,-99.99,,2013-03-08 09:52:00,
2013-03-08 05:01:00,26.0,24.0,30.41,NW,317,0.0,-999.0,93,-99.99,,,-99.99,,2013-03-08 10:01:00,
2013-03-08 05:11:00,26.0,24.0,30.41,NW,317,0.0,-999.0,93,-99.99,,,-99.99,,2013-03-08 10:11:00,
2013-03-08 05:21:00,26.0,24.0,30.42,NW,317,0.0,-999.0,93,-99.99,,,-99.99,,2013-03-08 10:21:00,
2013-03-08 05:32:00,25.0,23.0,30.42,NW,317,0.0,-999.0,93,-99.99,,,-99.99,,2013-03-08 10:32:00,
2013-03-08 05:42:00,25.0,23.0,30.42,NW,317,0.0,-999.0,93,-99.99,,,-99.99,,2013-03-08 10:42:00,
2013-03-08 05:52:00,25.0,24.0,30.42,NW,317,0.0,-999.0,94,-99.99,,,-99.99,,2013-03-08 10:52:00,
2013-03-08 06:01:00,25.0,24.0,30.43,NW,317,0.0,-999.0,94,-99.99,,,-99.99,,2013-03-08 11:01:00,
2013-03-08 06:11:00,25.0,24.0,30.43,NW,317,0.0,-999.0,94,-99.99,,,-99.99,,2013-03-08 11:11:00,
2013-03-08 06:22:00,25.0,24.0,30.44,NW,317,0.0,-999.0,94,-99.99,,,-99.99,,2013-03-08 11:22:00,
2013-03-08 06:32:00,25.0,24.0,30.44,NW,317,0.0,-999.0,94,-99.99,,,-99.99,,2013-03-08 11:32:00,
2013-03-08 06:42:00,25.0,24.0,30.44,NW,317,0.0,-999.0,94,-99.99,,,-99.99,,2013-03-08 11:42:00,
2013-03-08 06:52:00,24.0,23.0,30.44,NW,317,0.0,-999.0,94,-99.99,,,-99.99,,2013-03-08 11:52:00,
2013-03-08 07:02:00,24.0,23.0,30.45,NW,317,0.0,-999.0,94,-99.99,,,-99.99,,2013-03-08 12:02:00,
2013-03-08 07:11:00,24.0,23.0,30.45,NW,317,0.0,-999.0,94,-99.99,,,-99.99,,2013-03-08 12:11:00,
2013-03-08 07:22:00,24.0,23.0,30.46,NW,317,0.0,-999.0,94,-99.99,,,-99.99,,2013-03-08 12:22:00,
2013-03-08 07:32:00,24.0,23.0,30.46,NW,317,0.0,-999.0,94,-99.99,,,-99.99,,2013-03-08 12:32:00,
2013-03-08 07:43:00,24.0,23.0,30.46,NW,317,0.0,-999.0,94,-99.99,,,-99.99,,2013-03-08 12:43:00,
2013-03-08 07:53:00,24.0,23.0,30.46,NW,317,0.0,-999.0,94,-99.99,,,-99.99,,2013-03-08 12:53:00,
2013-03-08 08:01:00,25.0,24.0,30.46,NW,317,0.0,-999.0,94,-99.99,,,-99.99,,2013-03-08 13:01:00,
2013-03-08 08:11:00,25.0,24.0,30.46,NW,317,0.0,-999.0,94,-99.99,,,-99.99,,2013-03-08 13:11:00,
2013-03-08 08:22:00,26.0,25.0,30.47,NW,317,1.0,-999.0,94,-99.99,,,-99.99,,2013-03-08 13:22:00,
2013-03-08 08:32:00,26.0,24.0,30.47,NW,315,2.0,-999.0,93,-99.99,,,-99.99,,2013-03-08 13:32:00,
2013-03-08 08:42:00,26.0,24.0,30.47,NW,315,2.0,-999.0,93,-99.99,,,-99.99,,2013-03-08 13:42:00,
2013-03-08 08:52:00,28.0,26.0,30.47,NW,321,3.0,-999.0,92,-99.99,,,-99.99,,2013-03-08 13:52:00,
2013-03-08 09:03:00,28.0,25.0,30.47,NNW,342,3.0,-999.0,89,-99.99,,,-99.99,,2013-03-08 14:03:00,
2013-03-08 09:12:00,28.0,25.0,30.47,NNW,342,3.0,-999.0,89,-99.99,,,-99.99,,2013-03-08 14:12:00,
2013-03-08 09:22:00,30.0,27.0,30.48,NW,311,3.0,-999.0,87,-99.99,,,-99.99,,2013-03-08 14:22:00,
2013-03-08 09:32:00,30.0,26.0,30.48,NW,325,4.0,-999.0,86,-99.99,,,-99.99,,2013-03-08 14:32:00,
2013-03-08 09:42:00,30.0,26.0,30.48,NW,325,4.0,-999.0,86,-99.99,,,-99.99,,2013-03-08 14:42:00,
2013-03-08 09:53:00,30.0,26.0,30.49,NNW,337,4.0,-999.0,85,-99.99,,,-99.99,,2013-03-08 14:53:00,
2013-03-08 10:03:00,30.0,26.0,30.49,NNE,33,4.0,-999.0,86,-99.99,,,-99.99,,2013-03-08 15:03:00,
2013-03-08 10:12:00,30.0,26.0,30.49,NNE,33,4.0,-999.0,86,-99.99,,,-99.99,,2013-03-08 15:12:00,
2013-03-08 10:22:00,31.0,27.0,30.49,NNW,332,4.0,-999.0,86,-99.99,,,-99.99,,2013-03-08 15:22:00,
2013-03-08 10:32:00,31.0,27.0,30.50,NE,36,5.0,-999.0,85,-99.99,,,-99.99,,2013-03-08 15:32:00,
2013-03-08 10:42:00,31.0,27.0,30.50,NE,36,5.0,-999.0,85,-99.99,,,-99.99,,2013-03-08 15:42:00,
2013-03-08 10:53:00,31.0,27.0,30.50,North,354,4.0,-999.0,85,-99.99,,,-99.99,,2013-03-08 15:53:00,
2013-03-08 11:01:00,32.0,27.0,30.50,NNW,332,4.0,-999.0,83,-99.99,,,-99.99,,2013-03-08 16:01:00,
2013-03-08 11:11:00,32.0,27.0,30.50,NNW,332,4.0,-999.0,83,-99.99,,,-99.99,,2013-03-08 16:11:00,
2013-03-08 11:22:00,32.0,27.0,30.49,North,4,5.0,-999.0,83,-99.99,,,-99.99,,2013-03-08 16:22:00,
2013-03-08 11:32:00,34.0,28.0,30.49,WNW,302,3.0,-999.0,80,-99.99,,,-99.99,,2013-03-08 16:32:00,
2013-03-08 11:42:00,34.0,28.0,30.49,WNW,302,3.0,-999.0,80,-99.99,,,-99.99,,2013-03-08 16:42:00,
2013-03-08 11:52:00,35.0,29.0,30.48,North,354,4.0,-999.0,77,-99.99,,,-99.99,,2013-03-08 16:52:00,
2013-03-08 12:03:00,35.0,29.0,30.48,WNW,303,5.0,-999.0,77,-99.99,,,-99.99,,2013-03-08 17:03:00,
2013-03-08 12:12:00,35.0,29.0,30.48,WNW,303,5.0,-999.0,77,-99.99,,,-99.99,,2013-03-08 17:12:00,
2013-03-08 12:22:00,35.0,29.0,30.48,WNW,303,5.0,-999.0,77,-99.99,,,-99.99,,2013-03-08 17:22:00,
2013-03-08 12:32:00,35.0,28.0,30.48,NW,319,5.0,-999.0,74,-99.99,,,-99.99,,2013-03-08 17:32:00,
2013-03-08 12:42:00,35.0,28.0,30.48,NW,319,5.0,-999.0,74,-99.99,,,-99.99,,2013-03-08 17:42:00,
2013-03-08 12:52:00,35.0,28.0,30.48,NNW,342,4.0,-999.0,76,-99.99,,,-99.99,,2013-03-08 17:52:00,
2013-03-08 13:02:00,37.0,29.0,30.47,NNW,332,4.0,-999.0,74,-99.99,,,-99.99,,2013-03-08 18:02:00,
2013-03-08 13:11:00,37.0,29.0,30.47,NNW,332,4.0,-999.0,74,-99.99,,,-99.99,,2013-03-08 18:11:00,
2013-03-08 13:22:00,36.0,29.0,30.47,NW,304,4.0,-999.0,75,-99.99,,,-99.99,,2013-03-08 18:22:00,
2013-03-08 13:32:00,38.0,30.0,30.46,WNW,301,3.0,-999.0,73,-99.99,,,-99.99,,2013-03-08 18:32:00,
2013-03-08 13:42:00,38.0,30.0,30.46,WNW,301,3.0,-999.0,73,-99.99,,,-99.99,,2013-03-08 18:42:00,
2013-03-08 13:52:00,37.0,29.0,30.45,WNW,295,4.0,-999.0,74,-99.99,,,-99.99,,2013-03-08 18:52:00,
2013-03-08 14:01:00,38.0,30.0,30.45,NW,306,4.0,-999.0,73,-99.99,,,-99.99,,2013-03-08 19:01:00,
2013-03-08 14:11:00,38.0,30.0,30.45,NW,306,4.0,-999.0,73,-99.99,,,-99.99,,2013-03-08 19:11:00,
2013-03-08 14:22:00,38.0,29.0,30.44,NNW,337,4.0,-999.0,71,-99.99,,,-99.99,,2013-03-08 19:22:00,
2013-03-08 14:32:00,38.0,29.0,30.44,NNW,342,5.0,-999.0,71,-99.99,,,-99.99,,2013-03-08 19:32:00,
2013-03-08 14:42:00,38.0,29.0,30.44,NNW,342,5.0,-999.0,71,-99.99,,,-99.99,,2013-03-08 19:42:00,
2013-03-08 14:52:00,38.0,29.0,30.44,NNE,25,4.0,-999.0,71,-99.99,,,-99.99,,2013-03-08 19:52:00,
2013-03-08 15:01:00,38.0,30.0,30.44,North,353,5.0,-999.0,73,-99.99,,,-99.99,,2013-03-08 20:01:00,
2013-03-08 15:11:00,38.0,30.0,30.44,North,353,5.0,-999.0,73,-99.99,,,-99.99,,2013-03-08 20:11:00,
2013-03-08 15:22:00,38.0,30.0,30.44,NNE,30,5.0,-999.0,74,-99.99,,,-99.99,,2013-03-08 20:22:00,
2013-03-08 15:32:00,39.0,31.0,30.45,North,359,4.0,-999.0,73,-99.99,,,-99.99,,2013-03-08 20:32:00,
2013-03-08 15:42:00,39.0,31.0,30.45,North,359,4.0,-999.0,73,-99.99,,,-99.99,,2013-03-08 20:42:00,
2013-03-08 15:53:00,38.0,30.0,30.44,North,354,5.0,-999.0,74,-99.99,,,-99.99,,2013-03-08 20:53:00,
2013-03-08 16:02:00,38.0,30.0,30.45,NW,321,4.0,-999.0,73,-99.99,,,-99.99,,2013-03-08 21:02:00,
2013-03-08 16:11:00,38.0,30.0,30.45,NW,321,4.0,-999.0,73,-99.99,,,-99.99,,2013-03-08 21:11:00,
2013-03-08 16:22:00,39.0,31.0,30.44,North,6,2.0,-999.0,73,-99.99,,,-99.99,,2013-03-08 21:22:00,
2013-03-08 16:32:00,39.0,30.0,30.44,NNE,13,4.0,-999.0,69,-99.99,,,-99.99,,2013-03-08 21:32:00,
2013-03-08 16:42:00,39.0,30.0,30.44,NNE,13,4.0,-999.0,69,-99.99,,,-99.99,,2013-03-08 21:42:00,
2013-03-08 16:52:00,38.0,29.0,30.44,NNE,23,4.0,-999.0,71,-99.99,,,-99.99,,2013-03-08 21:52:00,
2013-03-08 17:01:00,38.0,29.0,30.44,NE,34,3.0,-999.0,71,-99.99,,,-99.99,,2013-03-08 22:01:00,
2013-03-08 17:11:00,38.0,29.0,30.44,NE,34,3.0,-999.0,71,-99.99,,,-99.99,,2013-03-08 22:11:00,
2013-03-08 17:22:00,38.0,29.0,30.44,NNE,26,4.0,-999.0,69,-99.99,,,-99.99,,2013-03-08 22:22:00,
2013-03-08 17:32:00,38.0,29.0,30.45,NW,308,2.0,-999.0,70,-99.99,,,-99.99,,2013-03-08 22:32:00,
2013-03-08 17:42:00,38.0,29.0,30.45,NW,308,2.0,-999.0,70,-99.99,,,-99.99,,2013-03-08 22:42:00,
2013-03-08 17:53:00,38.0,29.0,30.45,NNE,13,1.0,-999.0,69,-99.99,,,-99.99,,2013-03-08 22:53:00,
2013-03-08 18:02:00,38.0,28.0,30.45,North,357,3.0,-999.0,67,-99.99,,,-99.99,,2013-03-08 23:02:00,
2013-03-08 18:12:00,38.0,28.0,30.45,North,357,3.0,-999.0,67,-99.99,,,-99.99,,2013-03-08 23:12:00,
2013-03-08 18:22:00,37.0,28.0,30.45,North,359,3.0,-999.0,70,-99.99,,,-99.99,,2013-03-08 23:22:00,
2013-03-08 18:32:00,36.0,28.0,30.45,ENE,60,2.0,-999.0,71,-99.99,,,-99.99,,2013-03-08 23:32:00,
2013-03-08 18:42:00,36.0,28.0,30.45,ENE,60,2.0,-999.0,71,-99.99,,,-99.99,,2013-03-08 23:42:00,
2013-03-08 18:53:00,36.0,28.0,30.45,NE,47,2.0,-999.0,71,-99.99,,,-99.99,,2013-03-08 23:53:00,
2013-03-08 19:02:00,35.0,27.0,30.45,NE,47,1.0,-999.0,73,-99.99,,,-99.99,,2013-03-09 00:02:00,
2013-03-08 19:12:00,35.0,27.0,30.45,NE,47,1.0,-999.0,73,-99.99,,,-99.99,,2013-03-09 00:12:00,
2013-03-08 19:22:00,34.0,27.0,30.45,NE,47,1.0,-999.0,75,-99.99,,,-99.99,,2013-03-09 00:22:00,
2013-03-08 19:32:00,34.0,27.0,30.45,NE,48,1.0,-999.0,76,-99.99,,,-99.99,,2013-03-09 00:32:00,
2013-03-08 19:42:00,34.0,27.0,30.45,NE,48,1.0,-999.0,76,-99.99,,,-99.99,,2013-03-09 00:42:00,
2013-03-08 19:52:00,33.0,27.0,30.45,NE,46,0.0,-999.0,78,-99.99,,,-99.99,,2013-03-09 00:52:00,
2013-03-08 20:02:00,32.0,27.0,30.45,NE,47,0.0,-999.0,80,-99.99,,,-99.99,,2013-03-09 01:02:00,
2013-03-08 20:12:00,32.0,27.0,30.45,NE,47,1.0,-999.0,82,-99.99,,,-99.99,,2013-03-09 01:12:00,
2013-03-08 20:22:00,32.0,27.0,30.45,NE,47,1.0,-999.0,82,-99.99,,,-99.99,,2013-03-09 01:22:00,
2013-03-08 20:32:00,32.0,27.0,30.45,NE,47,1.0,-999.0,82,-99.99,,,-99.99,,2013-03-09 01:32:00,
2013-03-08 20:42:00,32.0,27.0,30.45,NE,47,1.0,-999.0,82,-99.99,,,-99.99,,2013-03-09 01:42:00,
2013-03-08 20:52:00,32.0,27.0,30.45,NE,47,1.0,-999.0,82,-99.99,,,-99.99,,2013-03-09 01:52:00,
2013-03-08 21:01:00,31.0,26.0,30.45,NE,47,0.0,-999.0,83,-99.99,,,-99.99,,2013-03-09 02:01:00,
2013-03-08 21:11:00,31.0,26.0,30.45,NE,47,0.0,-999.0,83,-99.99,,,-99.99,,2013-03-09 02:11:00,
2013-03-08 21:21:00,31.0,27.0,30.45,NE,47,1.0,-999.0,84,-99.99,,,-99.99,,2013-03-09 02:21:00,
2013-03-08 21:31:00,30.0,26.0,30.45,NE,47,1.0,-999.0,85,-99.99,,,-99.99,,2013-03-09 02:31:00,
2013-03-08 21:41:00,30.0,26.0,30.45,NE,47,0.0,-999.0,85,-99.99,,,-99.99,,2013-03-09 02:41:00,
2013-03-08 21:51:00,30.0,26.0,30.45,NE,47,0.0,-999.0,85,-99.99,,,-99.99,,2013-03-09 02:51:00,
2013-03-08 22:01:00,29.0,26.0,30.46,NE,47,0.0,-999.0,87,-99.99,,,-99.99,,2013-03-09 03:01:00,
2013-03-08 22:11:00,29.0,26.0,30.46,NE,47,0.0,-999.0,87,-99.99,,,-99.99,,2013-03-09 03:11:00,
2013-03-08 22:22:00,28.0,25.0,30.47,NE,47,1.0,-999.0,87,-99.99,,,-99.99,,2013-03-09 03:22:00,
2013-03-08 22:31:00,28.0,25.0,30.47,NE,47,0.0,-999.0,89,-99.99,,,-99.99,,2013-03-09 03:31:00,
2013-03-08 22:41:00,28.0,25.0,30.47,NE,47,0.0,-999.0,89,-99.99,,,-99.99,,2013-03-09 03:41:00,
2013-03-08 22:52:00,28.0,25.0,30.47,NE,47,0.0,-999.0,89,-99.99,,,-99.99,,2013-03-09 03:52:00,
2013-03-08 23:01:00,28.0,25.0,30.47,NE,47,0.0,-999.0,89,-99.99,,,-99.99,,2013-03-09 04:01:00,
2013-03-08 23:11:00,28.0,25.0,30.47,NE,47,0.0,-999.0,89,-99.99,,,-99.99,,2013-03-09 04:11:00,
2013-03-08 23:22:00,28.0,25.0,30.47,NE,47,0.0,-999.0,90,-99.99,,,-99.99,,2013-03-09 04:22:00,
2013-03-08 23:32:00,28.0,25.0,30.47,NE,47,0.0,-999.0,90,-99.99,,,-99.99,,2013-03-09 04:32:00,
2013-03-08 23:42:00,28.0,25.0,30.47,NE,47,0.0,-999.0,90,-99.99,,,-99.99,,2013-03-09 04:42:00,
2013-03-08 23:52:00,28.0,25.0,30.46,NE,47,2.0,-999.0,90,-99.99,,,-99.99,,2013-03-09 04:52:00,